Weather History for Andover, NJ

Change the Weather History Date:

Tuesday, November 20, 2012

  Actual Average (KFWN) Record (KFWN)
Temperature  
Mean Temperature 38 °F -  
Max Temperature 48 °F 48 °F 72 °F (1948)
Min Temperature 28 °F 25 °F 12 °F (1984)
Degree Days  
Heating Degree Days 27    
Moisture  
Dew Point 28 °F    
Average Humidity 75    
Maximum Humidity 92    
Minimum Humidity 46    
Precipitation  
Precipitation 0.00 in - - ()
Sea Level Pressure  
Sea Level Pressure 30.20 in    
Wind  
Wind Speed 1 mph (NE)    
Max Wind Speed 5 mph    
Max Gust Speed -    
Averages and records for this station are not official NWS values.
T = Trace of Precipitation, MM = Missing Value Source: NWS Daily Summary

Daily Weather History Graph

Daily Weather History Graph

Search for Another Location

Airport:

Trip Planner

Search our weather history database for the weather conditions in past years. The results will help you decide how hot, cold, wet, or windy it might be!

Date:

Astronomy

Nov. 20, 2012 Rise Set
Actual Time 6:52 AM EST 4:36 PM EST
Civil Twilight 6:22 AM EST 5:06 PM EST
Nautical Twilight 5:49 AM EST 5:39 PM EST
Astronomical Twilight 5:16 AM EST 6:12 PM EST
Moon 12:24 PM EST (11/20) No Moon Set
Length of Visible Light 10h 43m
Length of Day
9h 43m
Waxing Crescent, 51% of the Moon is Illuminated
Nov 20
Waxing Crescent
Nov 28
Full
Dec 6
Last Quarter
Dec 13
New
Dec 20
First Quarter

Hourly Weather History & Observations

Time (EST) Temp. Windchill Dew Point Humidity Pressure Visibility Wind Dir Wind Speed Gust Speed Precip Events Conditions
12:54 AM 28.9 °F - 26.1 °F 89% 30.26 in - Calm Calm - N/A   Unknown
1:54 AM 30.0 °F - 27.0 °F 88% 30.25 in - Calm Calm - N/A   Unknown
2:54 AM 28.9 °F - 27.0 °F 92% 30.25 in - Calm Calm - N/A   Unknown
3:54 AM 28.0 °F - 26.1 °F 92% 30.24 in - Calm Calm - N/A   Unknown
4:54 AM 28.9 °F - 26.1 °F 89% 30.22 in - Calm Calm - N/A   Unknown
5:54 AM 28.0 °F - 26.1 °F 92% 30.24 in - Calm Calm - N/A   Unknown
6:54 AM 28.0 °F - 26.1 °F 92% 30.23 in - Calm Calm - N/A   Unknown
7:54 AM 30.0 °F - 28.0 °F 92% 30.23 in - Calm Calm - N/A   Unknown
8:54 AM 34.0 °F - 30.9 °F 89% 30.22 in - Calm Calm - N/A   Unknown
9:54 AM 39.0 °F 36.8 °F 30.9 °F 73% 30.22 in - NE 3.5 mph - N/A   Unknown
10:54 AM 42.1 °F 40.2 °F 28.0 °F 58% 30.21 in - NE 3.5 mph - N/A   Unknown
11:54 AM 45.0 °F 42.6 °F 28.0 °F 52% 30.18 in - NE 4.6 mph - N/A   Unknown
12:54 PM 48.0 °F - 28.0 °F 46% 30.16 in - Calm Calm - N/A   Unknown
1:54 PM 48.0 °F - 28.0 °F 46% 30.14 in - NE 4.6 mph - N/A   Unknown
2:54 PM 48.0 °F - 28.9 °F 48% 30.14 in - Calm Calm - N/A   Unknown
3:54 PM 46.0 °F 44.8 °F 26.1 °F 46% 30.15 in - North 3.5 mph - N/A   Unknown
4:54 PM 41.0 °F - 28.9 °F 62% 30.16 in - Calm Calm - N/A   Unknown
5:54 PM 37.0 °F - 28.9 °F 73% 30.17 in - Calm Calm - N/A   Unknown
6:54 PM 37.0 °F - 28.9 °F 73% 30.17 in - Calm Calm - N/A   Unknown
7:54 PM 35.1 °F - 30.0 °F 82% 30.17 in - Calm Calm - N/A   Unknown
8:54 PM 34.0 °F - 28.9 °F 82% 30.18 in - Calm Calm - N/A   Unknown
9:54 PM 34.0 °F - 30.0 °F 85% 30.17 in - Calm Calm - N/A   Unknown
10:54 PM 35.1 °F - 30.0 °F 82% 30.17 in - Calm Calm - N/A   Unknown
11:54 PM 35.1 °F - 30.0 °F 82% 30.17 in - Calm Calm - N/A   Unknown